Temperature
7 7 7 8 8 8 9 9 9 9 9 9 9 9 9 9 9 10 10 10 10 10 10 10 9 9 9 9 9 9 9 9 9 9 8 8 8 8 8 8 8 8 8
7 7 7 7 8 8 8 8 8 9 9 9 9 9 9 9 9 9 9 9 9 9 9 9 9 9 9 9 9 9 9 9 8 8 8 7 8 8 8 8 8 8 8
7 6 6 7 7 7 8 8 8 8 8 8 8 8 8 8 8 9 9 9 9 9 9 9 9 9 9 8 8 8 8 8 8 8 7 7 8 7 7 7 7 7 7
6 6 6 6 7 7 7 7 8 8 8 8 8 8 8 8 8 8 8 8 8 8 8 8 8 8 8 8 8 8 8 7 7 7 7 7 6 6 6 6 7 7 7
5 5 5 6 6 7 7 7 7 7 7 7 7 7 7 7 7 7 8 7 7 8 8 8 8 8 7 7 7 7 7 7 7 6 6 6 6 6 6 6 6 6 6
5 5 5 5 6 6 6 6 7 7 7 7 7 7 7 7 7 7 7 7 7 7 7 7 7 7 7 7 7 7 7 7 6 6 6 6 5 5 5 5 5 5 5
4 4 5 5 5 5 6 6 6 6 6 6 6 6 6 6 6 6 6 6 6 6 6 6 6 6 7 7 6 6 6 6 6 6 6 5 5 5 5 5 4 4 5
4 4 4 4 4 5 5 5 5 5 6 6 6 6 6 6 6 6 6 6 6 6 6 6 6 6 6 6 6 6 6 6 5 5 5 5 5 5 4 4 4 4 4
3 3 4 4 4 4 4 4 5 5 5 5 5 5 5 5 5 5 5 5 5 5 5 5 5 5 5 6 5 5 5 5 5 5 4 4 4 4 4 4 4 3 3
3 3 3 4 4 4 4 4 4 4 4 4 4 4 4 4 4 4 4 4 5 5 5 5 5 5 5 5 5 5 5 5 4 4 4 4 4 4 3 3 3 3 3
3 3 3 3 3 4 3 3 3 3 3 4 4 3 4 4 4 4 4 4 4 4 4 4 4 4 4 4 4 4 4 4 4 4 3 3 3 3 3 3 3 2 2
3 3 3 3 3 3 3 3 3 3 3 3 3 3 3 3 3 3 3 3 3 3 4 4 4 4 4 4 3 3 3 3 3 3 3 3 2 2 2 2 2 2 2
3 3 3 3 3 3 3 3 3 3 3 3 3 3 2 2 2 3 3 3 3 3 3 3 3 3 3 3 3 3 3 3 3 2 2 2 2 2 2 2 2 2 1
3 3 2 2 2 2 3 3 2 2 2 2 2 2 2 2 2 2 2 2 2 2 2 2 2 2 2 2 2 2 2 2 2 2 2 1 1 1 1 1 1 1 1
2 2 2 2 2 2 2 2 2 2 2 2 2 2 1 1 1 1 1 1 1 2 2 2 2 1 1 1 1 1 1 1 1 1 1 1 1 1 1 1 1 1 0
2 2 2 2 2 2 2 2 2 2 1 1 1 1 1 1 1 1 1 1 1 1 1 1 1 1 1 1 1 1 0 0 0 0 0 0 0 1 1 1 0 0 -0
2 2 2 2 2 2 2 1 1 1 1 1 1 1 1 0 0 0 0 0 0 0 0 0 0 0 0 0 0 0 -0 -0 -0 -0 -0 -0 -0 -0 -0 -0 -0 -0 -0
2 2 2 2 2 2 1 1 1 1 1 1 0 0 0 -0 -0 -0 -0 -0 -0 -0 -0 -0 -0 -0 -0 0 0 -0 -0 -0 -0 -0 -0 -1 -1 -1 -1 -1 -1 -1 -1
2 2 2 2 2 1 1 1 1 0 0 0 0 -0 -0 -0 -1 -1 -1 -1 -1 -1 -1 -1 -1 -1 -1 -1 -0 -1 -1 -1 -1 -1 -1 -1 -1 -1 -1 -1 -1 -1 -1
2 2 1 1 1 1 1 0 0 0 -0 -0 -0 -0 -1 -1 -1 -1 -1 -1 -1 -1 -1 -2 -1 -1 -1 -1 -1 -1 -2 -2 -2 -2 -1 -1 -1 -2 -2 -2 -2 -2 -2
1 1 1 1 1 1 0 0 -0 -0 -0 -0 -1 -1 -1 -1 -1 -2 -2 -2 -2 -2 -2 -2 -2 -2 -2 -2 -2 -2 -2 -2 -2 -2 -2 -2 -2 -2 -2 -2 -3 -3 -3
1 1 1 0 0 0 -0 -0 -1 -1 -1 -1 -1 -1 -1 -2 -2 -2 -2 -2 -2 -2 -2 -3 -3 -3 -3 -3 -2 -3 -3 -3 -3 -3 -3 -3 -3 -3 -3 -3 -3 -3 -3
0 0 -0 -0 -0 -0 -1 -1 -1 -1 -1 -1 -1 -2 -2 -2 -2 -2 -3 -3 -3 -3 -3 -3 -3 -3 -3 -3 -3 -3 -3 -3 -4 -4 -4 -4 -3 -3 -3 -3 -4 -4 -4
-0 -0 -1 -1 -1 -1 -1 -1 -1 -1 -2 -2 -2 -2 -2 -2 -3 -3 -3 -3 -3 -4 -4 -4 -4 -4 -4 -4 -4 -4 -4 -4 -4 -4 -4 -4 -4 -4 -4 -4 -4 -4 -4
-1 -1 -1 -1 -1 -1 -2 -2 -2 -2 -2 -2 -2 -3 -3 -3 -3 -3 -3 -4 -4 -4 -4 -4 -4 -5 -5 -5 -5 -5 -5 -5 -5 -5 -5 -5 -5 -5 -5 -5 -5 -5 -5
-1 -1 -1 -1 -1 -2 -2 -2 -2 -2 -3 -3 -3 -3 -3 -3 -4 -4 -4 -4 -4 -4 -4 -4 -5 -5 -5 -5 -5 -5 -5 -5 -5 -5 -5 -5 -5 -5 -5 -5 -5 -5 -6
Wind_Speed
2 1 1 1 1 0 0 1 1 1 1 1 1 1 1 1 1 2 2 2 2 3 4 3 3 3 3 3 3 3 3 2 2 2 2 2 3 3 2 2 2 2 3
3 1 1 1 1 1 1 1 1 1 1 1 1 1 1 1 1 2 2 2 2 3 2 3 3 3 3 3 3 3 2 1 2 2 2 2 4 3 3 3 3 3 3
4 3 2 2 1 1 1 1 1 1 1 1 1 1 1 1 1 1 1 1 1 3 3 2 2 2 3 3 3 3 3 2 2 2 2 2 3 2 3 4 4 3 3
3 3 2 1 1 1 1 1 1 1 1 2 2 2 1 1 1 0 0 1 1 1 2 2 2 2 2 3 3 3 3 3 3 2 2 2 2 3 3 3 4 4 4
2 1 1 1 1 1 1 2 1 1 1 2 2 2 2 1 0 0 1 0 1 1 1 1 1 2 2 3 3 3 3 3 3 3 2 3 2 3 3 4 4 4 5
1 1 0 0 0 0 1 1 1 1 1 2 2 2 2 2 2 1 0 0 0 1 0 1 0 1 2 2 3 3 3 3 4 4 3 3 2 3 4 5 5 5 5
1 1 1 1 1 0 0 1 1 1 1 2 2 2 2 2 2 1 1 1 0 0 0 0 1 1 2 1 2 2 2 4 4 5 4 4 4 3 3 4 4 5 5
2 1 1 1 1 0 0 1 1 2 2 2 2 2 1 1 1 1 1 1 1 0 1 1 1 1 1 2 2 2 2 2 4 4 4 4 3 3 3 3 4 4 5
1 1 1 1 1 1 0 1 1 1 2 2 2 2 2 1 1 1 1 0 0 0 1 1 1 1 2 2 2 2 3 3 3 4 4 4 3 4 4 4 4 4 5
1 1 0 1 1 1 1 0 1 1 1 1 1 1 1 1 0 0 0 0 0 0 1 1 1 2 2 3 3 2 3 3 3 3 4 4 4 4 4 4 4 4 5
2 1 0 0 0 0 0 0 1 1 1 1 1 1 1 0 1 0 0 0 0 0 1 1 1 2 2 3 3 3 3 4 4 4 5 5 5 4 4 4 4 5 5
2 2 1 1 1 0 0 0 0 1 1 1 1 1 1 0 0 0 0 1 1 1 1 2 2 2 3 3 4 4 4 4 5 5 5 6 5 6 5 5 5 6 6
3 2 2 2 2 1 1 1 1 1 1 1 1 1 1 1 1 1 1 1 1 2 2 2 3 3 4 4 4 5 5 5 5 5 6 6 6 6 5 6 6 5 5
4 3 3 3 2 2 2 2 2 2 2 2 2 2 2 2 2 1 1 1 2 2 2 3 3 4 4 4 4 4 5 5 5 6 6 6 7 7 7 6 7 6 6
6 6 5 4 4 3 3 3 3 2 2 3 3 2 2 2 2 2 2 2 2 3 3 3 4 4 4 4 4 4 5 6 6 6 6 7 7 8 8 7 7 7 6
7 6 6 5 5 4 4 3 3 3 3 3 3 2 2 2 2 2 2 2 3 3 3 3 4 4 4 5 6 6 6 6 6 7 7 7 8 9 10 11 10 9 8
7 7 7 6 5 5 4 4 4 3 4 3 3 3 3 3 3 2 3 3 3 3 4 4 4 5 5 6 7 8 6 6 7 7 7 6 6 8 8 9 10 10 11
7 7 6 6 5 4 4 4 3 3 4 4 3 3 3 3 3 3 3 3 3 4 4 5 5 5 6 7 8 8 7 7 7 7 7 8 8 7 7 8 8 8 8
7 7 6 5 5 4 4 4 4 4 4 4 4 4 4 4 4 4 4 4 4 4 4 5 6 6 6 7 8 7 6 6 7 7 8 8 8 9 8 8 8 8 7
6 5 5 5 5 4 4 4 5 5 5 5 4 4 4 5 5 5 4 4 4 5 5 5 6 6 7 7 8 7 5 6 6 6 7 8 9 9 9 8 7 8 7
5 5 5 5 5 4 4 5 5 5 5 4 4 4 5 5 5 5 4 4 4 5 5 6 6 6 7 7 8 8 5 6 6 6 6 6 8 9 9 8 7 8 7
4 5 4 4 4 4 5 6 6 5 4 4 4 4 4 4 4 5 5 5 5 5 5 5 5 5 5 7 7 9 8 7 7 6 6 6 8 10 10 8 8 8 6
4 4 4 4 3 4 5 6 5 4 4 4 4 4 4 4 4 4 5 4 4 4 4 4 5 5 5 5 8 9 9 8 7 6 8 9 9 9 7 8 8 6 4
4 4 4 5 4 4 5 5 4 4 4 5 4 4 4 4 4 4 4 4 4 4 5 5 5 5 5 5 5 5 6 6 6 6 6 7 7 6 7 7 5 4 4
4 4 5 5 5 4 5 4 4 5 5 5 4 4 4 4 4 4 4 5 6 6 6 5 5 6 6 6 8 7 6 5 5 5 4 4 4 4 4 4 3 3 3
4 4 5 5 5 4 4 4 4 5 5 5 5 4 4 4 4 4 4 6 8 8 9 9 8 7 9 10 10 9 9 7 6 5 4 5 4 5 4 4 4 4 4
Wind_Direction
242 253 245 221 193 164 128 111 125 114 122 134 157 174 168 159 127 115 139 142 156 162 162 161 157 164 170 177 178 173 172 171 175 194 210 215 218 223 226 239 245 249 261
232 234 230 205 208 198 174 171 162 129 125 137 179 204 187 173 141 109 102 126 158 151 154 167 159 168 173 174 173 163 172 167 183 200 208 232 220 218 233 244 249 256 261
230 233 231 218 201 218 227 211 185 148 129 129 135 120 121 122 143 136 131 106 165 166 151 154 163 165 166 184 187 185 185 186 191 202 211 226 240 236 223 235 246 259 260
226 231 231 235 224 235 231 214 180 145 150 148 136 146 158 164 223 258 104 122 134 149 164 161 181 174 174 184 198 199 202 198 201 209 232 260 277 246 247 232 240 252 258
228 225 239 249 255 242 226 212 179 156 153 151 148 155 153 141 130 131 65 354 142 112 128 154 182 180 184 185 198 206 211 211 213 209 215 234 246 248 250 260 257 253 250
198 176 70 18 319 277 219 208 175 163 165 162 161 158 152 145 120 103 129 239 212 152 102 176 208 200 194 194 202 208 218 223 223 219 214 221 230 240 247 258 268 266 263
143 106 63 36 6 310 195 202 176 175 181 176 169 167 166 157 151 174 230 242 243 354 317 244 231 242 214 204 201 202 218 228 227 228 229 230 238 249 254 262 270 272 276
120 96 67 33 360 356 180 195 190 192 191 188 185 174 168 169 176 201 224 245 253 326 331 298 268 286 246 211 210 201 220 238 236 234 232 236 240 240 242 250 264 273 269
142 123 79 31 12 13 70 185 193 196 199 196 189 181 173 169 173 185 210 221 283 320 293 310 287 271 277 249 221 223 220 229 241 243 237 237 242 244 248 252 251 259 271
171 150 83 6 1 9 26 138 180 192 198 187 176 164 173 175 179 193 196 180 335 333 272 278 291 280 268 261 232 227 230 227 235 241 243 244 246 247 249 250 253 253 261
202 209 244 303 20 74 75 134 169 177 194 196 182 175 181 135 106 138 244 283 320 277 280 277 290 282 277 272 248 238 234 236 238 236 242 246 250 251 251 252 250 251 252
213 211 227 242 205 165 163 192 206 201 217 216 192 184 186 173 182 280 303 297 292 293 287 281 276 276 268 268 256 248 242 241 243 245 246 248 249 250 251 250 250 252 252
224 228 236 238 222 213 215 216 219 224 219 213 204 199 209 224 244 266 278 272 278 285 281 280 275 276 270 267 257 255 253 249 247 250 251 251 249 251 252 252 254 256 258
241 240 245 243 229 226 226 221 217 212 206 202 206 216 234 245 251 262 269 276 276 275 276 278 279 278 274 266 260 258 260 257 254 254 254 254 251 252 254 254 255 257 259
242 242 246 246 235 229 226 221 218 215 212 210 211 221 234 244 249 255 262 268 272 275 279 281 281 278 274 265 266 265 264 261 259 259 257 255 257 259 258 257 257 257 258
239 238 241 242 237 230 227 220 217 216 220 221 223 224 228 234 240 248 255 259 265 270 274 274 276 274 273 276 270 270 266 262 259 260 260 259 256 257 258 259 260 258 255
235 231 233 235 234 230 225 224 221 216 217 222 225 226 232 239 246 253 255 259 267 272 272 275 276 276 275 274 271 269 268 263 260 261 262 264 263 261 260 260 259 257 258
233 230 232 232 229 222 218 214 211 212 218 226 231 230 235 246 256 259 263 270 273 273 276 278 277 278 278 278 276 275 268 264 261 261 261 264 265 263 265 264 262 260 259
233 228 226 222 217 218 212 205 208 213 221 229 234 235 236 242 249 256 263 268 270 273 277 278 277 278 283 282 283 280 270 264 264 263 262 262 264 267 267 263 261 265 268
231 224 217 212 214 216 207 208 216 219 227 232 236 235 236 239 246 254 259 262 264 268 273 276 276 277 280 284 284 281 270 268 270 270 267 260 263 269 267 261 258 262 271
225 216 209 213 217 213 205 217 224 229 234 236 236 235 236 240 246 252 255 258 262 268 273 276 278 278 282 284 284 280 272 271 273 273 272 268 267 268 270 269 262 269 279
222 214 213 221 222 213 210 223 232 233 229 228 230 233 235 238 241 246 253 255 259 265 271 275 281 282 284 283 284 282 279 281 274 272 273 272 268 269 268 268 270 275 275
226 221 215 224 233 226 218 229 234 223 220 224 231 233 235 237 240 244 250 254 256 261 269 273 279 284 286 286 285 282 280 280 278 278 280 280 277 276 269 267 268 266 262
227 219 213 222 233 232 230 233 229 217 217 222 228 231 232 237 239 243 246 250 253 258 264 268 275 281 282 283 288 285 282 280 280 282 282 280 278 274 273 269 261 255 257
226 216 216 225 233 232 232 232 222 209 215 222 226 229 232 238 242 245 248 251 252 256 260 264 269 275 278 283 293 294 290 289 287 291 283 280 279 274 272 270 266 263 260
222 220 225 229 234 231 231 230 222 211 212 220 225 228 230 235 242 249 258 253 254 266 266 269 272 276 279 289 290 290 292 294 295 286 274 272 271 272 272 270 269 265 262
Height
1497 1497 1497 1496 1496 1496 1496 1496 1497 1498 1498 1499 1500 1500 1501 1502 1502 1504 1505 1506 1507 1508 1510 1511 1512 1513 1514 1515 1516 1517 1519 1519 1520 1521 1521 1522 1522 1522 1521 1521 1521 1521 1520
1495 1495 1495 1494 1494 1493 1494 1494 1495 1496 1496 1497 1498 1498 1499 1499 1500 1501 1502 1503 1505 1506 1508 1509 1510 1511 1512 1513 1514 1515 1516 1516 1517 1519 1519 1520 1521 1519 1519 1518 1518 1518 1517
1492 1492 1492 1492 1492 1492 1492 1492 1493 1494 1494 1495 1496 1497 1497 1497 1498 1499 1500 1501 1502 1503 1505 1506 1507 1508 1509 1511 1511 1512 1513 1514 1515 1516 1517 1518 1517 1517 1516 1515 1515 1514 1513
1490 1490 1489 1489 1489 1490 1490 1490 1491 1492 1492 1493 1494 1494 1495 1495 1496 1497 1498 1499 1500 1501 1502 1503 1505 1506 1507 1508 1509 1510 1511 1512 1512 1513 1513 1515 1514 1515 1513 1513 1512 1511 1510
1488 1487 1487 1487 1487 1488 1488 1488 1489 1490 1490 1491 1492 1493 1493 1494 1495 1496 1496 1497 1498 1499 1500 1501 1502 1503 1504 1505 1506 1507 1508 1509 1509 1510 1510 1511 1511 1511 1511 1509 1509 1508 1507
1486 1485 1485 1485 1485 1486 1486 1486 1487 1488 1488 1489 1490 1491 1491 1492 1493 1494 1494 1495 1496 1496 1497 1498 1499 1500 1501 1502 1503 1504 1505 1505 1506 1506 1507 1507 1508 1508 1508 1507 1505 1504 1504
1484 1484 1484 1483 1484 1484 1484 1484 1485 1486 1486 1487 1488 1488 1489 1490 1490 1491 1492 1493 1494 1494 1495 1496 1496 1497 1498 1499 1500 1500 1501 1502 1502 1503 1503 1503 1504 1504 1504 1504 1502 1501 1500
1483 1483 1483 1483 1482 1482 1482 1482 1483 1484 1485 1485 1486 1486 1487 1488 1488 1489 1490 1491 1491 1491 1492 1493 1494 1494 1495 1496 1496 1497 1498 1498 1498 1499 1499 1499 1500 1500 1500 1501 1500 1498 1497
1481 1482 1482 1482 1481 1481 1481 1481 1482 1482 1483 1483 1484 1484 1485 1486 1486 1487 1488 1488 1488 1488 1490 1491 1491 1491 1492 1492 1493 1493 1494 1494 1494 1494 1495 1495 1495 1496 1496 1496 1496 1497 1494
1480 1480 1481 1481 1480 1480 1480 1480 1480 1480 1481 1481 1481 1482 1483 1483 1484 1484 1485 1485 1485 1486 1487 1488 1488 1488 1489 1489 1489 1490 1490 1490 1490 1490 1491 1491 1491 1491 1491 1491 1491 1491 1491
1478 1478 1479 1479 1479 1479 1479 1479 1479 1479 1479 1479 1479 1480 1480 1481 1481 1482 1482 1483 1483 1483 1484 1484 1484 1485 1485 1485 1485 1486 1486 1486 1486 1487 1487 1487 1487 1487 1487 1487 1487 1486 1486
1477 1477 1477 1477 1477 1477 1477 1477 1477 1477 1477 1477 1477 1478 1478 1478 1479 1479 1479 1480 1480 1480 1481 1481 1480 1481 1481 1481 1481 1482 1482 1482 1482 1482 1482 1483 1483 1483 1483 1482 1482 1481 1481
1474 1475 1475 1475 1475 1475 1475 1476 1476 1476 1475 1476 1476 1476 1476 1476 1476 1477 1477 1477 1477 1477 1477 1477 1477 1477 1478 1477 1477 1478 1478 1477 1477 1478 1478 1478 1478 1478 1478 1478 1477 1477 1476
1472 1472 1472 1473 1473 1473 1473 1473 1473 1473 1473 1473 1474 1474 1474 1474 1474 1474 1474 1474 1474 1474 1474 1474 1473 1474 1474 1473 1473 1473 1473 1473 1473 1473 1473 1473 1472 1472 1473 1472 1472 1472 1471
1469 1469 1469 1470 1470 1470 1470 1471 1471 1471 1471 1471 1471 1471 1471 1471 1471 1471 1471 1471 1471 1471 1470 1470 1469 1469 1469 1469 1469 1469 1468 1468 1468 1468 1468 1468 1467 1467 1467 1467 1467 1466 1466
1465 1465 1466 1466 1466 1467 1467 1468 1468 1468 1469 1468 1468 1468 1468 1468 1468 1468 1467 1467 1467 1467 1466 1466 1466 1465 1465 1465 1465 1465 1464 1464 1463 1463 1462 1462 1462 1462 1462 1461 1461 1461 1461
1461 1462 1462 1462 1463 1464 1464 1465 1465 1465 1465 1465 1465 1465 1465 1465 1465 1464 1464 1464 1463 1463 1463 1462 1462 1461 1461 1461 1460 1460 1460 1459 1458 1458 1457 1457 1456 1456 1456 1455 1455 1455 1455
1457 1458 1459 1459 1460 1461 1461 1462 1462 1462 1462 1462 1462 1462 1462 1461 1461 1461 1460 1460 1460 1459 1459 1458 1458 1457 1457 1456 1456 1455 1455 1454 1454 1453 1452 1452 1451 1451 1450 1450 1449 1449 1448
1454 1455 1455 1456 1456 1457 1458 1458 1459 1459 1459 1459 1459 1459 1458 1458 1458 1457 1457 1456 1456 1455 1455 1454 1453 1453 1452 1452 1451 1450 1450 1449 1448 1448 1447 1446 1446 1445 1445 1445 1444 1443 1443
1450 1451 1451 1452 1453 1453 1454 1454 1455 1455 1455 1455 1455 1455 1455 1455 1454 1454 1453 1453 1452 1451 1451 1450 1449 1448 1448 1447 1446 1446 1445 1444 1443 1443 1442 1441 1441 1440 1440 1439 1438 1437 1437
1446 1447 1447 1448 1449 1449 1450 1450 1451 1451 1451 1451 1451 1451 1451 1451 1451 1450 1450 1449 1448 1448 1447 1446 1445 1444 1443 1442 1442 1441 1441 1440 1438 1438 1437 1436 1436 1435 1435 1434 1434 1433 1432
1442 1443 1443 1444 1445 1445 1446 1446 1446 1447 1447 1447 1447 1447 1447 1447 1446 1446 1446 1445 1444 1443 1443 1442 1441 1440 1439 1438 1437 1437 1436 1435 1434 1433 1432 1431 1431 1430 1429 1429 1428 1428 1427
1438 1439 1439 1440 1441 1441 1442 1442 1442 1442 1443 1443 1443 1443 1442 1442 1442 1442 1441 1441 1440 1439 1438 1438 1437 1435 1435 1434 1433 1432 1432 1430 1430 1429 1428 1427 1426 1425 1424 1424 1423 1423 1422
1435 1435 1436 1436 1436 1437 1437 1437 1438 1438 1438 1438 1438 1438 1438 1438 1438 1437 1437 1437 1436 1435 1434 1434 1433 1431 1431 1430 1429 1428 1427 1426 1425 1424 1423 1422 1420 1420 1419 1419 1418 1418 1417
1431 1431 1432 1432 1432 1433 1433 1433 1433 1434 1434 1434 1434 1434 1434 1434 1433 1433 1433 1432 1432 1431 1430 1429 1429 1428 1426 1426 1425 1424 1423 1422 1421 1419 1418 1417 1416 1415 1414 1414 1413 1413 1412
1427 1428 1428 1428 1428 1429 1429 1429 1429 1429 1430 1430 1430 1430 1430 1430 1429 1429 1428 1427 1427 1427 1426 1425 1424 1423 1422 1421 1421 1420 1419 1418 1417 1416 1414 1413 1412 1411 1410 1409 1409 1408 1408